FW7458 Weather Reports


time (UTC)temp
C
wind
direction
speed
KPH
gust
KPH
rain 1hr
cm
rain 24hr
cm
rain mn
cm
humidity
%
barometer
mb
20260906175507 37 67 6.4 19.3 0.00 0.00 0.00 37 1013.6
20260906175004 36 205 1.6 19.3 0.00 0.00 0.00 38 1013.8
20260906174517 36 144 4.8 16.1 0.00 0.00 0.00 38 1014.0
20260906174006 36 159 3.2 16.1 0.00 0.00 0.00 38 1014.1
20260906173507 37 98 4.8 6.4 0.00 0.00 0.00 37 1014.2
20260906173016 37 141 0.0 6.4 0.00 0.00 0.00 37 1014.2
20260906172507 37 40 0.0 6.4 0.00 0.00 0.00 38 1014.3
20260906172011 37 124 1.6 12.9 0.00 0.00 0.00 38 1014.3
20260906171517 37 53 4.8 11.3 0.00 0.00 0.00 39 1014.3
20260906171007 36 307 1.6 14.5 0.00 0.00 0.00 39 1014.3
20260906170509 36 118 6.4 14.5 0.00 0.00 0.00 39 1014.3
20260906170018 36 145 4.8 14.5 0.00 0.00 0.00 39 1014.3
20260906165508 36 90 3.2 11.3 0.00 0.00 0.00 41 1014.4
20260906165006 36 21 3.2 9.7 0.00 0.00 0.00 41 1014.4
20260906164505 36 50 0.0 4.8 0.00 0.00 0.00 41 1014.4
20260906164009 36 5 1.6 11.3 0.00 0.00 0.00 43 1014.4
20260906163508 35 82 4.8 11.3 0.00 0.00 0.00 43 1014.5
20260906163012 35 9 3.2 11.3 0.00 0.00 0.00 44 1014.5
20260906162512 35 115 3.2 11.3 0.00 0.00 0.00 45 1014.5
20260906162009 35 345 3.2 6.4 0.00 0.00 0.00 45 1014.4
20260906161519 35 144 3.2 6.4 0.00 0.00 0.00 46 1014.4
20260906161012 35 29 1.6 9.7 0.00 0.00 0.00 46 1014.6
20260906160511 35 84 4.8 11.3 0.00 0.00 0.00 47 1014.5
20260906160024 34 124 1.6 11.3 0.00 0.00 0.00 47 1014.6
20260906155510 34 57 3.2 9.7 0.00 0.00 0.00 47 1014.6
20260906155010 34 59 1.6 6.4 0.00 0.00 0.00 48 1014.6
20260906154530 34 114 3.2 6.4 0.00 0.00 0.00 49 1014.6
20260906154003 33 43 3.2 6.4 0.00 0.00 0.00 50 1014.5
20260906153510 33 34 3.2 9.7 0.00 0.00 0.00 50 1014.5
20260906153034 33 65 0.0 9.7 0.00 0.00 0.00 50 1014.5
20260906152511 33 90 1.6 6.4 0.00 0.00 0.00 50 1014.6
20260906152010 33 92 1.6 6.4 0.00 0.00 0.00 51 1014.6
20260906151531 32 119 0.0 6.4 0.00 0.00 0.00 52 1014.4
20260906151013 32 100 1.6 6.4 0.00 0.00 0.00 52 1014.5
20260906150510 32 126 1.6 4.8 0.00 0.00 0.00 53 1014.5
20260906150026 32 54 3.2 6.4 0.00 0.00 0.00 54 1014.5
20260906145511 31 96 1.6 8.0 0.00 0.00 0.00 55 1014.6
20260906145011 31 169 3.2 8.0 0.00 0.00 0.00 55 1014.5
20260906144530 31 173 3.2 8.0 0.00 0.00 0.00 55 1014.4
20260906144003 31 80 0.0 8.0 0.00 0.00 0.00 56 1014.5
20260906143512 30 109 3.2 9.7 0.00 0.00 0.00 57 1014.4
20260906143007 30 72 3.2 9.7 0.00 0.00 0.00 57 1014.4
20260906142503 30 152 4.8 6.4 0.00 0.00 0.00 58 1014.3
20260906142012 30 157 1.6 9.7 0.00 0.00 0.00 59 1014.2
20260906141528 30 148 1.6 9.7 0.00 0.00 0.00 59 1014.3
20260906141007 29 151 1.6 6.4 0.00 0.00 0.00 60 1014.2
20260906140513 29 131 3.2 4.8 0.00 0.00 0.00 62 1014.1
20260906140024 28 91 1.6 4.8 0.00 0.00 0.00 62 1014.1
20260906135512 28 165 1.6 6.4 0.00 0.00 0.00 62 1014.2
20260906135012 28 114 3.2 8.0 0.00 0.00 0.00 62 1014.3
20260906134528 28 128 3.2 8.0 0.00 0.00 0.00 62 1014.3
20260906134015 28 103 0.0 3.2 0.00 0.00 0.00 64 1014.1
20260906133512 28 93 0.0 6.4 0.00 0.00 0.00 64 1014.2
20260906133030 27 113 1.6 4.8 0.00 0.00 0.00 65 1014.1
20260906132513 27 75 0.0 6.4 0.00 0.00 0.00 65 1014.1
20260906132012 27 57 0.0 6.4 0.00 0.00 0.00 66 1014.0
20260906131517 27 85 1.6 8.0 0.00 0.00 0.00 66 1014.0
20260906131003 27 113 3.2 8.0 0.00 0.00 0.00 66 1014.0
20260906130505 27 82 3.2 6.4 0.00 0.00 0.00 66 1014.0
20260906130032 27 92 1.6 6.4 0.00 0.00 0.00 66 1013.9
20260906125507 27 86 1.6 4.8 0.00 0.00 0.00 67 1013.8
20260906125006 26 54 1.6 3.2 0.00 0.00 0.00 67 1013.7
20260906124531 26 61 0.0 3.2 0.00 0.00 0.00 67 1013.6
20260906124010 26 67 0.0 3.2 0.00 0.00 0.00 68 1013.6
20260906123516 26 60 0.0 3.2 0.00 0.00 0.00 68 1013.5
20260906123049 26 49 1.6 3.2 0.00 0.00 0.00 68 1013.4
20260906122514 26 57 0.0 0.0 0.00 0.00 0.00 67 1013.3
20260906122014 26 57 0.0 3.2 0.00 0.00 0.00 67 1013.3
20260906121532 26 101 0.0 3.2 0.00 0.00 0.00 67 1013.3
20260906121014 26 101 0.0 3.2 0.00 0.00 0.00 66 1013.3
20260906120504 27 150 0.0 1.6 0.00 0.00 0.00 66 1013.3
20260906120032 27 106 0.0 1.6 0.00 0.00 0.00 65 1013.1
20260906115508 27 106 0.0 0.0 0.00 0.00 0.00 65 1013.1
20260906115022 27 106 0.0 3.2 0.00 0.00 0.00 65 1013.0
20260906114523 27 106 0.0 3.2 0.00 0.00 0.00 65 1013.0
20260906114007 27 88 0.0 0.0 0.00 0.00 0.00 65 1013.1
20260906113510 27 88 0.0 1.6 0.00 0.00 0.00 65 1013.1
20260906113029 27 88 0.0 3.2 0.00 0.00 0.00 65 1013.1
20260906112519 27 88 1.6 3.2 0.00 0.00 0.00 65 1013.1
20260906112014 27 100 0.0 4.8 0.00 0.00 0.00 66 1013.0
20260906111532 27 110 1.6 4.8 0.00 0.00 0.00 66 1012.9
20260906111014 27 90 0.0 4.8 0.00 0.00 0.00 66 1012.9
20260906110517 26 85 1.6 4.8 0.00 0.00 0.00 66 1012.9
20260906110032 26 88 0.0 3.2 0.00 0.00 0.00 66 1012.9
20260906105516 27 73 0.0 3.2 0.00 0.00 0.00 66 1013.0
20260906105007 27 73 0.0 3.2 0.00 0.00 0.00 66 1013.0
20260906104519 27 73 0.0 3.2 0.00 0.00 0.00 65 1013.0
20260906104010 27 92 0.0 0.0 0.00 0.00 0.00 65 1012.9
20260906103507 27 92 0.0 0.0 0.00 0.00 0.00 65 1012.9
20260906103026 27 92 0.0 0.0 0.00 0.00 0.00 65 1012.9
20260906102513 27 92 0.0 0.0 0.00 0.00 0.00 65 1012.9
20260906102012 27 82 0.0 0.0 0.00 0.00 0.00 64 1012.9
20260906101532 27 90 0.0 0.0 0.00 0.00 0.00 64 1013.0
20260906101017 27 90 0.0 0.0 0.00 0.00 0.00 64 1013.1
20260906100516 27 90 0.0 3.2 0.00 0.00 0.00 63 1013.1
20260906100033 27 90 0.0 3.2 0.00 0.00 0.00 63 1013.0
20260906095515 27 90 0.0 3.2 0.00 0.00 0.00 62 1013.0
20260906095016 27 70 0.0 3.2 0.00 0.00 0.00 62 1012.9
20260906094532 27 84 0.0 3.2 0.00 0.00 0.00 62 1012.8
20260906094018 27 119 0.0 3.2 0.00 0.00 0.00 62 1012.7
20260906093513 28 86 0.0 3.2 0.00 0.00 0.00 62 1012.5
20260906093036 28 135 0.0 4.8 0.00 0.00 0.00 62 1012.5
20260906092511 28 94 0.0 4.8 0.00 0.00 0.00 62 1012.6
20260906092015 28 148 0.0 0.0 0.00 0.00 0.00 62 1012.5
20260906091536 28 153 0.0 0.0 0.00 0.00 0.00 61 1012.6
20260906091015 28 144 0.0 0.0 0.00 0.00 0.00 61 1012.6
20260906090517 28 139 0.0 3.2 0.00 0.00 0.00 61 1012.5
20260906090051 28 126 0.0 3.2 0.00 0.00 0.00 61 1012.5
20260906085518 28 121 0.0 3.2 0.00 0.00 0.00 60 1012.5
20260906085017 28 121 0.0 3.2 0.00 0.00 0.00 60 1012.5
20260906084534 28 116 0.0 3.2 0.00 0.00 0.00 60 1012.5
20260906084017 28 93 0.0 3.2 0.00 0.00 0.00 60 1012.6
20260906083517 28 87 0.0 3.2 0.00 0.00 0.00 60 1012.5
20260906083017 28 139 0.0 3.2 0.00 0.00 0.00 60 1012.6
20260906082516 28 136 0.0 1.6 0.00 0.00 0.00 59 1012.6
20260906082014 28 96 0.0 3.2 0.00 0.00 0.00 59 1012.5
20260906081537 28 128 0.0 4.8 0.00 0.00 0.00 59 1012.5
20260906081017 28 84 0.0 4.8 0.00 0.00 0.00 59 1012.4
20260906080503 28 123 0.0 3.2 0.00 0.00 0.00 59 1012.4
20260906080004 28 180 0.0 3.2 0.00 0.00 0.00 60 1012.3
20260906075503 28 103 0.0 4.8 0.00 0.00 0.00 60 1012.5
20260906075015 28 95 1.6 4.8 0.00 0.00 0.00 59 1012.4
20260906074531 28 82 0.0 3.2 0.00 0.00 0.00 60 1012.3
20260906074003 28 121 0.0 3.2 0.00 0.00 0.00 60 1012.3
20260906073504 28 121 0.0 3.2 0.00 0.00 0.00 60 1012.3
20260906073040 28 155 1.6 4.8 0.00 0.00 0.00 60 1012.2
20260906072510 28 80 0.0 4.8 0.00 0.00 0.00 60 1012.2
20260906072014 28 119 1.6 4.8 0.00 0.00 0.00 60 1012.2
20260906071523 28 101 1.6 4.8 0.00 0.00 0.00 60 1012.2
20260906071011 28 101 1.6 6.4 0.00 0.00 0.00 60 1012.2
20260906070515 28 87 1.6 9.7 0.00 0.00 0.00 60 1012.4
20260906070035 28 82 3.2 9.7 0.00 0.00 0.00 60 1012.3
20260906065515 28 85 1.6 4.8 0.00 0.00 0.00 60 1012.4
20260906065015 28 133 1.6 4.8 0.00 0.00 0.00 60 1012.4
20260906064507 28 93 0.0 6.4 0.00 0.00 0.00 60 1012.5
20260906064014 28 69 0.0 6.4 0.00 0.00 0.00 60 1012.5
20260906063504 29 78 0.0 6.4 0.00 0.00 0.00 60 1012.5
20260906063019 29 88 0.0 6.4 0.00 0.00 0.00 60 1012.6
20260906062507 29 71 0.0 3.2 0.00 0.00 0.00 59 1012.6
20260906062009 29 43 0.0 3.2 0.00 0.00 0.00 59 1012.7
20260906061526 29 37 0.0 3.2 0.00 0.00 0.00 58 1012.7
20260906061011 30 61 0.0 3.2 0.00 0.00 0.00 58 1012.8
20260906060517 30 84 0.0 4.8 0.00 0.00 0.00 58 1012.8
20260906060026 30 66 0.0 4.8 0.00 0.00 0.00 57 1012.8
20260906055519 30 34 0.0 3.2 0.00 0.00 0.00 57 1012.7
20260906055015 30 63 0.0 3.2 0.00 0.00 0.00 57 1012.8
20260906054529 30 76 1.6 3.2 0.00 0.00 0.00 57 1012.7
20260906054017 30 84 0.0 4.8 0.00 0.00 0.00 57 1012.8
20260906053503 30 70 0.0 4.8 0.00 0.00 0.00 57 1012.8
20260906053010 30 86 0.0 4.8 0.00 0.00 0.00 56 1012.9
20260906052524 30 96 0.0 4.8 0.00 0.00 0.00 56 1012.9
20260906052011 30 99 0.0 4.8 0.00 0.00 0.00 56 1012.8
20260906051534 30 76 0.0 8.0 0.00 0.00 0.00 56 1012.8
20260906051008 30 75 1.6 8.0 0.00 0.00 0.00 56 1012.8
20260906050509 30 71 1.6 4.8 0.00 0.00 0.00 56 1012.9
20260906050023 30 88 0.0 12.9 0.00 0.00 0.00 55 1012.8
20260906045510 30 40 0.0 12.9 0.00 0.00 0.00 55 1012.8
20260906045015 31 50 0.0 6.4 0.00 0.00 0.00 55 1012.8
20260906044542 31 26 1.6 6.4 0.00 0.00 0.00 55 1012.8
20260906044016 31 92 1.6 6.4 0.00 0.00 0.00 55 1012.8
20260906043515 31 30 1.6 0.0 0.00 0.00 0.00 55 1012.8
20260906043038 -17 0.0 0.0 0.00 0.00 0.00 1012.9
20260906042517 -17 0.0 0.0 0.00 0.00 0.00 1013.0
20260906042017 -17 0.0 0.0 0.00 0.00 0.00 1013.0
20260906041535 -17 0.0 0.0 0.00 0.00 0.00 1013.0
20260906041020 -17 0.0 0.0 0.00 0.00 0.00 1013.0
20260906040520 -17 0.0 0.0 0.00 0.00 0.00 1012.9
20260906040037 -17 0.0 0.0 0.00 0.00 0.00 1013.0
20260906035517 -17 0.0 0.0 0.00 0.00 0.00 1013.0
20260906035018 -17 0.0 0.0 0.00 0.00 0.00 1013.0
20260906034539 -17 0.0 0.0 0.00 0.00 0.00 1012.9
20260906034021 -17 0.0 0.0 0.00 0.00 0.00 1012.8
20260906033518 -17 0.0 0.0 0.00 0.00 0.00 1012.8
20260906033037 -17 0.0 0.0 0.00 0.00 0.00 1012.9
20260906032520 -17 0.0 0.0 0.00 0.00 0.00 1012.8
20260906032021 -17 0.0 0.0 0.00 0.00 0.00 1012.6
20260906031539 -17 0.0 0.0 0.00 0.00 0.00 1012.5
20260906031020 -17 0.0 0.0 0.00 0.00 0.00 1012.4
20260906030520 -17 0.0 0.0 0.00 0.00 0.00 1012.4
20260906030038 33 0.0 0.0 0.00 0.00 0.00 1012.3
20260906025520 33 0.0 4.8 0.00 0.00 0.00 43 1012.2
20260906025018 33 100 0.0 4.8 0.00 0.00 0.00 43 1012.2
20260906024537 33 31 1.6 3.2 0.00 0.00 0.00 43 1012.2
20260906024018 33 49 0.0 0.0 0.00 0.00 0.00 43 1012.1
20260906023516 33 49 0.0 0.0 0.00 0.00 0.00 43 1012.0
20260906023036 33 49 0.0 0.0 0.00 0.00 0.00 43 1011.9
20260906022525 33 49 0.0 0.0 0.00 0.00 0.00 43 1011.9
20260906022021 33 49 0.0 0.0 0.00 0.00 0.00 43 1011.8
20260906021534 33 49 0.0 0.0 0.00 0.00 0.00 43 1011.7
20260906021016 33 49 0.0 0.0 0.00 0.00 0.00 43 1011.6
20260906020517 33 49 0.0 0.0 0.00 0.00 0.00 42 1011.5
20260906020037 33 49 0.0 0.0 0.00 0.00 0.00 42 1011.5
20260906015501 33 49 0.0 0.0 0.00 0.00 0.00 42 1011.5
20260906015016 34 49 0.0 0.0 0.00 0.00 0.00 42 1011.4
20260906014528 34 49 0.0 0.0 0.00 0.00 0.00 42 1011.4
20260906014003 34 49 0.0 0.0 0.00 0.00 0.00 41 1011.3
20260906013512 34 49 0.0 0.0 0.00 0.00 0.00 41 1011.3
20260906013046 35 49 0.0 0.0 0.00 0.00 0.00 41 1011.2
20260906012503 35 49 0.0 0.0 0.00 0.00 0.00 41 1011.2
20260906012015 35 49 0.0 0.0 0.00 0.00 0.00 41 1011.2
20260906011539 35 49 0.0 0.0 0.00 0.00 0.00 41 1011.1
20260906011007 35 49 0.0 3.2 0.00 0.00 0.00 41 1011.0
20260906010521 35 49 0.0 3.2 0.00 0.00 0.00 40 1011.1
20260906010032 35 49 0.0 3.2 0.00 0.00 0.00 40 1011.0
20260906005505 35 49 0.0 3.2 0.00 0.00 0.00 40 1011.0
20260906005021 36 352 0.0 3.2 0.00 0.00 0.00 39 1011.0
20260906004518 36 352 0.0 4.8 0.00 0.00 0.00 39 1011.1
20260906004024 36 352 1.6 4.8 0.00 0.00 0.00 38 1011.0
20260906003519 36 352 1.6 4.8 0.00 0.00 0.00 38 1011.0
20260906003024 36 352 3.2 6.4 0.00 0.00 0.00 38 1011.0
20260906002518 36 5 3.2 8.0 0.00 0.00 0.00 37 1011.0
20260906002018 37 344 3.2 6.4 0.00 0.00 0.00 36 1011.0
20260906001532 37 40 3.2 6.4 0.00 0.00 0.00 36 1011.1
20260906001021 37 44 1.6 6.4 0.00 0.00 0.00 36 1011.0
20260906000520 37 16 3.2 12.9 0.00 0.00 0.00 35 1011.2
20260906000013 38 25 3.2 12.9 0.00 0.00 0.00 35 1011.2
20260905235507 38 44 1.6 4.8 0.00 0.00 0.00 34 1011.2
20260905235006 38 91 0.0 3.2 0.00 0.00 0.00 33 1011.2
20260905234535 38 44 1.6 3.2 0.00 0.00 0.00 33 1011.3
20260905234019 38 49 0.0 4.8 0.00 0.00 0.00 33 1011.1
20260905233512 38 69 0.0 9.7 0.00 0.00 0.00 33 1011.0
20260905233005 38 75 3.2 9.7 0.00 0.00 0.00 33 1011.0
20260905232502 38 349 1.6 4.8 0.00 0.00 0.00 33 1011.0
20260905232003 38 32 1.6 3.2 0.00 0.00 0.00 33 1011.1
20260905231503 38 45 0.0 6.4 0.00 0.00 0.00 32 1011.0
20260905231021 38 82 1.6 6.4 0.00 0.00 0.00 32 1010.9
20260905230515 38 57 3.2 6.4 0.00 0.00 0.00 32 1010.9
20260905230040 38 35 1.6 4.8 0.00 0.00 0.00 33 1010.9
20260905225519 38 350 1.6 4.8 0.00 0.00 0.00 33 1010.9
20260905225020 38 9 3.2 6.4 0.00 0.00 0.00 32 1010.8
20260905224536 38 86 0.0 6.4 0.00 0.00 0.00 32 1010.9
20260905224020 38 93 3.2 6.4 0.00 0.00 0.00 32 1010.9
20260905223518 38 332 1.6 4.8 0.00 0.00 0.00 32 1010.9
20260905223042 38 277 0.0 4.8 0.00 0.00 0.00 31 1011.0
20260905222517 38 252 1.6 6.4 0.00 0.00 0.00 31 1011.1
20260905222022 38 288 1.6 9.7 0.00 0.00 0.00 32 1011.1
20260905221506 38 191 4.8 9.7 0.00 0.00 0.00 32 1011.1
20260905221020 38 48 0.0 6.4 0.00 0.00 0.00 34 1011.1
20260905220515 37 48 0.0 6.4 0.00 0.00 0.00 34 1011.1
20260905220006 37 169 1.6 9.7 0.00 0.00 0.00 34 1011.1
20260905215516 37 208 4.8 11.3 0.00 0.00 0.00 33 1011.3
20260905215016 38 185 6.4 11.3 0.00 0.00 0.00 33 1011.3
20260905214510 37 162 3.2 9.7 0.00 0.00 0.00 33 1011.4
20260905214016 37 180 3.2 11.3 0.00 0.00 0.00 33 1011.4
20260905213512 38 135 4.8 11.3 0.00 0.00 0.00 33 1011.5
20260905213019 38 149 3.2 4.8 0.00 0.00 0.00 32 1011.6
20260905212509 38 43 0.0 6.4 0.00 0.00 0.00 32 1011.5
20260905212021 37 214 3.2 11.3 0.00 0.00 0.00 32 1011.6
20260905211523 37 140 3.2 11.3 0.00 0.00 0.00 33 1011.6
20260905211021 37 126 3.2 11.3 0.00 0.00 0.00 34 1011.7
20260905210512 37 125 3.2 11.3 0.00 0.00 0.00 34 1011.7
20260905210049 37 198 6.4 12.9 0.00 0.00 0.00 34 1011.8
20260905205520 37 157 8.0 12.9 0.00 0.00 0.00 32 1011.9
20260905205015 37 170 3.2 12.9 0.00 0.00 0.00 33 1011.9
20260905204508 37 117 4.8 11.3 0.00 0.00 0.00 34 1012.0
20260905204020 37 182 1.6 6.4 0.00 0.00 0.00 35 1012.0
20260905203516 37 259 1.6 4.8 0.00 0.00 0.00 34 1012.1
20260905203051 37 78 1.6 6.4 0.00 0.00 0.00 35 1012.2
20260905202516 37 20 1.6 6.4 0.00 0.00 0.00 35 1012.2
20260905202021 37 52 0.0 3.2 0.00 0.00 0.00 37 1012.5
20260905201519 36 306 1.6 3.2 0.00 0.00 0.00 37 1012.4
20260905201011 36 252 0.0 6.4 0.00 0.00 0.00 37 1012.5
20260905200517 36 179 1.6 6.4 0.00 0.00 0.00 37 1012.7
20260905200038 36 196 3.2 9.7 0.00 0.00 0.00 37 1012.7
20260905195514 37 126 4.8 16.1 0.00 0.00 0.00 37 1012.8
20260905195025 37 156 6.4 14.5 0.00 0.00 0.00 37 1012.8
20260905194539 37 144 6.4 11.3 0.00 0.00 0.00 37 1012.8
20260905194003 37 175 4.8 8.0 0.00 0.00 0.00 37 1012.9
20260905193503 37 57 3.2 8.0 0.00 0.00 0.00 38 1013.0
20260905193036 36 60 1.6 12.9 0.00 0.00 0.00 38 1013.0
20260905192516 36 94 6.4 14.5 0.00 0.00 0.00 38 1013.1
20260905192021 37 82 6.4 12.9 0.00 0.00 0.00 37 1013.2
20260905191539 37 119 1.6 6.4 0.00 0.00 0.00 38 1013.2
20260905191018 37 101 3.2 6.4 0.00 0.00 0.00 38 1013.4
20260905190520 37 161 3.2 8.0 0.00 0.00 0.00 37 1013.4
20260905190036 36 251 3.2 6.4 0.00 0.00 0.00 38 1013.4
20260905185518 36 114 0.0 8.0 0.00 0.00 0.00 38 1013.5
20260905185021 36 290 3.2 8.0 0.00 0.00 0.00 39 1013.6
20260905184544 36 52 1.6 12.9 0.00 0.00 0.00 39 1013.8
20260905184024 36 155 3.2 11.3 0.00 0.00 0.00 39 1013.8
20260905183515 36 165 3.2 6.4 0.00 0.00 0.00 39 1013.8
20260905183037 36 168 0.0 8.0 0.00 0.00 0.00 40 1013.9
20260905182518 36 321 1.6 8.0 0.00 0.00 0.00 40 1013.9
20260905182004 36 117 3.2 6.4 0.00 0.00 0.00 40 1014.0
20260905181533 36 18 3.2 6.4 0.00 0.00 0.00 41 1014.1
20260905181017 36 171 1.6 6.4 0.00 0.00 0.00 41 1014.2
20260905180508 36 33 1.6 11.3 0.00 0.00 0.00 42 1014.2
20260905180038 35 103 4.8 11.3 0.00 0.00 0.00 42 1014.2